This demonstration page uses our WeatherBlox Daily Observations layout. Learn more.

Left ArrowRight Arrow

Hourly Observations for February 27, 2016

Temp ( °F °C ) Dew Point ( °F °C ) Humidity (%) Winds ( mph kmh ) Pressure ( in mb ) Visibility ( mi km ) Precip ( " mm )
12:51 am 00:51 Clear 54 12.2 19 -7.2 25 25 E 12 19 30.05 1018 10 16.0934 N/A
1:51 am 01:51 Clear 51 10.6 19 -7.2 28 28 E 8 13 30.05 1018 10 16.0934 N/A
2:51 am 02:51 Clear 50 10 19 -7.2 29 29 ESE 8 13 30.03 1017 10 16.0934 N/A
3:51 am 03:51 Clear 50 10 19 -7.2 29 29 ESE 7 11 30.02 1017 10 16.0934 N/A
4:51 am 04:51 Clear 49 9.4 20 -6.7 32 32 SE 6 9 30.03 1017 10 16.0934 N/A
5:51 am 05:51 Clear 41 5 19 -7.2 41 41 N N/A 30.05 1018 10 16.0934 N/A
6:51 am 06:51 Sunny 46 7.8 20 -6.7 35 35 ESE 12 19 30.07 1018 10 16.0934 N/A
7:51 am 07:51 Sunny 53 11.7 20 -6.7 27 27 ESE 14 22 30.07 1018 10 16.0934 N/A
8:51 am 08:51 Sunny 58 14.4 21 -6.1 24 24 SE 13 20 30.08 1019 10 16.0934 N/A
9:51 am 09:51 Sunny 63 17.2 21 -6.1 20 20 ESE 10 17 30.07 1018 10 16.0934 N/A
10:51 am 10:51 Sunny 69 20.6 21 -6.1 16 16 SE 12 19 30.04 1017 10 16.0934 N/A
11:51 am 11:51 Sunny 70 21.1 22 -5.6 16 16 SE 3 6 30.01 1016 10 16.0934 N/A
12:51 pm 12:51 Sunny 73 22.8 22 -5.6 15 15 S 6 9 29.95 1014 10 16.0934 N/A
1:51 pm 13:51 Sunny 76 24.4 21 -6.1 13 13 VRB 3 6 29.91 1013 10 16.0934 N/A
2:51 pm 14:51 Sunny 78 25.6 19 -7.2 11 11 WSW 5 7 29.87 1012 10 16.0934 N/A
3:51 pm 15:51 Sunny 81 27.2 18 -7.8 9 9 WNW 8 13 29.84 1011 10 16.0934 N/A
4:51 pm 16:51 Sunny 79 26.1 19 -7.2 10 10 W 8 13 29.84 1011 10 16.0934 N/A
5:51 pm 17:51 Sunny 76 24.4 20 -6.7 12 12 W 8 13 29.86 1011 10 16.0934 N/A
6:51 pm 18:51 Clear 67 19.4 20 -6.7 17 17 WNW 8 13 29.87 1012 10 16.0934 N/A
7:51 pm 19:51 Clear 62 16.7 19 -7.2 19 19 WNW 9 15 29.89 1012 10 16.0934 N/A
8:51 pm 20:51 Clear 62 16.7 18 -7.8 18 18 NNW 7 11 29.9 1012 10 16.0934 N/A
9:51 pm 21:51 Clear 59 15 19 -7.2 21 21 NNW 8 13 29.9 1013 10 16.0934 N/A
10:51 pm 22:51 Clear 59 15 17 -8.3 19 19 WNW 9 15 29.9 1013 10 16.0934 N/A
11:51 pm 23:51 Clear 52 11.1 19 -7.2 27 27 SE 3 6 29.92 1013 10 16.0934 N/A

Powered by AerisWeather